St. Catharines, Ontario

12:11 PM EST on February 10, 2016 (GMT -0500)
St. Catharines

Weather History for 71262 - February, 2014

Change the Weather History Date:

Friday, February 14, 2014

  Actual Average Record
Temperature  
Mean Temperature 26 °F -  
Max Temperature 30 °F 34 °F - ()
Min Temperature 23 °F 23 °F - ()
Degree Days  
Heating Degree Days 38    
Moisture  
Dew Point 21 °F    
Average Humidity 82    
Maximum Humidity 93    
Minimum Humidity 69    
Precipitation  
Precipitation 0.00 in -13.12 in - ()
Sea Level Pressure  
Sea Level Pressure 29.56 in    
Wind  
Wind Speed 8 mph ()    
Max Wind Speed 20 mph    
Max Gust Speed 26 mph    
Visibility 6.5 miles    
Events Snow    
T = Trace of Precipitation, MM = Missing Value Source: Averaged Metar Reports

Daily Weather History Graph

Daily Weather History Graph

Search for Another Location

Airport or City:

Trip Planner

Search our weather history database for the weather conditions in past years. The results will help you decide how hot, cold, wet, or windy it might be!

Date:

Astronomy

Feb. 14, 2014 Rise Set
Actual Time 7:15 AM EST 5:46 PM EST
Civil Twilight 6:46 AM EST 6:15 PM EST
Nautical Twilight 6:13 AM EST 6:49 PM EST
Astronomical Twilight 5:40 AM EST 7:22 PM EST
Moon 5:50 PM EST (2/14) 6:41 AM EST (2/14)
Length of Visible Light 11h 29m
Length of Day
10h 30m
Full, 100% of the Moon is Illuminated
Feb 14
Full
Feb 14
Full
Feb 22
Last Quarter
Mar 1
New
Mar 8
First Quarter

Hourly Weather History & Observations

Time (EST) Temp. Windchill Dew Point Humidity Pressure Visibility Wind Dir Wind Speed Gust Speed Precip Events Conditions
7:00 AM 24.8 °F 16.1 °F 19.4 °F 80% 29.47 in 9.0 mi SW 8.1 mph - N/A   Overcast
7:26 AM 24.8 °F 16.1 °F 21.2 °F 86% 29.47 in 7.0 mi SW 8.1 mph - N/A Snow Light Snow Showers
8:00 AM 24.8 °F 16.1 °F 21.2 °F 86% 29.48 in 3.0 mi SW 8.1 mph - N/A Snow Light Snow Showers
8:09 AM 23.0 °F 13.9 °F 21.2 °F 93% 29.49 in 2.0 mi SW 8.1 mph - N/A Snow Light Snow Showers
8:48 AM 23.0 °F 17.0 °F 21.2 °F 93% 29.49 in 3.0 mi WSW 4.6 mph - N/A Snow Light Snow Showers
9:00 AM 23.0 °F 15.8 °F 21.2 °F 93% 29.49 in 3.0 mi WSW 5.8 mph - N/A Snow Light Snow Showers
9:14 AM 23.0 °F 14.7 °F 21.2 °F 93% 29.50 in 2.5 mi WSW 6.9 mph - N/A Snow Light Snow Showers
10:00 AM 24.8 °F 16.1 °F 21.2 °F 86% 29.51 in 4.0 mi WSW 8.1 mph - N/A Snow Light Snow Showers
11:00 AM 24.8 °F 16.9 °F 21.2 °F 86% 29.52 in 7.0 mi WSW 6.9 mph - N/A Snow Light Snow Showers
12:00 PM 26.6 °F 16.2 °F 21.2 °F 80% 29.53 in 10.0 mi WSW 11.5 mph - N/A   Overcast
1:00 PM 28.4 °F 17.0 °F 21.2 °F 74% 29.55 in 9.0 mi WSW 15.0 mph - N/A   Overcast
2:00 PM 28.4 °F 16.6 °F 21.2 °F 74% 29.57 in 10.0 mi SW 16.1 mph - N/A   Overcast
3:00 PM 28.4 °F 17.0 °F 21.2 °F 74% 29.60 in 10.0 mi SW 15.0 mph - N/A   Mostly Cloudy
4:00 PM 30.2 °F 17.8 °F 21.2 °F 69% 29.62 in 8.0 mi WSW 19.6 mph 26.5 mph N/A   Mostly Cloudy
5:00 PM 28.4 °F 15.4 °F 19.4 °F 69% 29.65 in 8.0 mi West 19.6 mph - N/A   Mostly Cloudy
6:00 PM 28.4 °F 18.5 °F 21.2 °F 74% 29.68 in 7.0 mi WSW 11.5 mph - N/A   Overcast
7:00 PM 26.6 °F 17.5 °F 19.4 °F 74% 29.70 in 7.0 mi WSW 9.2 mph - N/A   Overcast
8:00 PM 26.6 °F 20.0 °F 21.2 °F 80% 29.70 in 7.0 mi SW 5.8 mph - N/A   Overcast
9:00 PM 26.6 °F 18.2 °F 23.0 °F 86% 29.71 in 7.0 mi SW 8.1 mph - N/A   Overcast